This is the latest recevied weather packets stored in our database for station/object KJ5JYX. If no packets are shown the sender has not sent any weather packets the latest 10 day(s).
| Time | Temp. | Humidity | Pressure | Rain* | Wind** | Luminosity | Snow |
|---|---|---|---|---|---|---|---|
| 1777672564 | 13.33° C | 92% | 1015.9 hPa | 0 mm | - | 45 W/m² | - |
| 1777672259 | 13.33° C | 92% | 1016 hPa | 0 mm | - | 40 W/m² | - |
| 1777671954 | 13.89° C | 92% | 1016.1 hPa | 0 mm | - | 33 W/m² | - |
| 1777671650 | 13.89° C | 92% | 1016.2 hPa | 0 mm | - | 25 W/m² | - |
| 1777671347 | 13.89° C | 92% | 1016.2 hPa | 0 mm | - | 23 W/m² | - |
| 1777671043 | 13.89° C | 91% | 1016 hPa | 0 mm | - | 31 W/m² | - |
| 1777670740 | 13.89° C | 91% | 1015.9 hPa | 0 mm | - | 36 W/m² | - |
| 1777670437 | 13.89° C | 90% | 1015.9 hPa | 0 mm | - | 19 W/m² | - |
| 1777670133 | 13.89° C | 90% | 1016.1 hPa | 0 mm | - | 23 W/m² | - |
| 1777669832 | 13.89° C | 91% | 1016 hPa | 0 mm | - | 26 W/m² | - |
| 1777669527 | 13.89° C | 90% | 1015.8 hPa | 0 mm | - | 27 W/m² | - |
| 1777669224 | 14.44° C | 91% | 1015.5 hPa | 0 mm | - | 25 W/m² | - |
| 1777668921 | 14.44° C | 91% | 1015.5 hPa | 0 mm | - | 24 W/m² | - |
| 1777668619 | 14.44° C | 91% | 1015.6 hPa | 0 mm | - | 33 W/m² | - |
| 1777668314 | 14.44° C | 91% | 1015.4 hPa | 0 mm | - | 45 W/m² | - |
| 1777668011 | 14.44° C | 91% | 1015 hPa | 0 mm | - | 47 W/m² | - |
| 1777667708 | 14.44° C | 92% | 1014.9 hPa | 0 mm | - | 113 W/m² | - |
| 1777667406 | 14.44° C | 93% | 1014.7 hPa | 0 mm | - | 86 W/m² | - |
| 1777667102 | 14.44° C | 92% | 1014.9 hPa | 0 mm | - | 43 W/m² | - |
| 1777666798 | 14.44° C | 93% | 1014.8 hPa | 0 mm | - | 89 W/m² | - |
| 1777666496 | 14.44° C | 93% | 1014.9 hPa | 0 mm | - | 119 W/m² | - |
| 1777666192 | 14.44° C | 94% | 1014.9 hPa | 0 mm | - | 131 W/m² | - |
| 1777665890 | 14.44° C | 95% | 1014.7 hPa | 0 mm | - | 158 W/m² | - |
| 1777665587 | 14.44° C | 95% | 1014.7 hPa | 0 mm | - | 222 W/m² | - |
| 1777665284 | 14.44° C | 96% | 1014.7 hPa | 0 mm | - | 160 W/m² | - |
* Rain latest hour (hover to see other rain measurements)
** Current wind speed in m/s (hover to see current wind gust speed)